x

Chambers Island, Wi (cbrw3) Weather Station

8:40am - Sat 23rd May 2015 All times are CDT. -5 hours from GMT.

  • Wind
    10mph, 16mph gusts
  • Air Temp 55°f
  • Sea Pressure 1026.1mb
  • Chambers Island, Wi
  • Chambers Island, Wi

More Historic Weather Station data

Upgrade to MSW Pro to gain access to the past 30 days of data for over 8000 Wavebouys and Weather Stations around the globe.

Join Pro

Comparision Forecast

View Surf forecast
   
Sat 05/23 8:40am 10 16 mph 1026.1mb 55f
8:30am 7 15 mph 1026.1mb 55f
8:20am 6 14 mph 1026.1mb 55f
8:10am 8 15 mph 1026.1mb 55f
8:00am 9 16 mph 1026.1mb 54f
7:40am 8 14 mph 1026.1mb 54f
7:30am 8 15 mph 1026.1mb 54f
7:20am 7 14 mph 1026.1mb 53f
7:10am 9 14 mph 1026.1mb 53f
7:00am 7 14 mph 1025.7mb 53f
6:40am 6 14 mph 1025.7mb 52f
6:30am 7 15 mph 1025.7mb 52f
6:20am 8 15 mph 1025.7mb 51f
6:10am 8 13 mph 1025.7mb 51f
6:00am 7 13 mph 1025.7mb 50f
5:40am 7 11 mph 1025.4mb 49f
5:30am 7 9 mph 1025.1mb 49f
5:20am 5 9 mph 1025.1mb 48f
5:10am 6 10 mph 1025.1mb 48f
5:00am 5 9 mph 1025.1mb 48f
4:40am 6 10 mph 1024.7mb 48f
4:30am 6 11 mph 1024.7mb 48f
4:20am 7 11 mph 1024.7mb 49f
4:10am 3 11 mph 1024.7mb 49f
4:00am 6 11 mph 1024.7mb 49f
3:40am 7 13 mph 1024.7mb 49f
3:30am 6 11 mph 1024.7mb 49f
3:20am 7 13 mph 1024.7mb 49f
3:10am 7 11 mph 1024.7mb 49f
3:00am 6 13 mph 1024.7mb 49f
2:40am 5 11 mph 1024.7mb 49f
2:30am 7 11 mph 1024.4mb 49f
2:20am 5 11 mph 1024.7mb 49f
2:10am 6 13 mph 1024.7mb 49f
2:00am 7 13 mph 1024.7mb 49f
1:40am 5 8 mph 1024.7mb 47f
1:30am 2 8 mph 1024.7mb 46f
1:20am 2 7 mph 1024.7mb 46f
1:10am 3 7 mph 1024.7mb 46f
1:00am 3 5 mph 1024.7mb 44f
12:40am 2 3 mph 1025.1mb 41f
12:30am  -  2 mph 1025.1mb 40f
12:20am 2 3 mph 1025.1mb 40f
12:10am 1 2 mph 1025.1mb 40f
12:00am 2
mph
1025.4mb 40f
Fri 05/22 11:40pm 1 3 mph 1025.4mb 43f
11:30pm 2 5 mph 1025.4mb 43f
11:20pm 3 5 mph 1025.4mb 41f
11:10pm 3 5 mph 1025.4mb 41f
11:00pm 2 3 mph 1025.4mb 41f
10:40pm 2 3 mph 1025.7mb 42f
10:30pm 1 3 mph 1025.7mb 42f
10:20pm 2 5 mph 1025.4mb 44f
10:10pm 2 5 mph 1025.4mb 43f
10:00pm 3 6 mph 1025.4mb 44f
9:40pm  -  3 mph 1025.4mb 44f
9:30pm 3 6 mph 1025.4mb 45f
9:20pm 6 8 mph 1025.1mb 46f
9:10pm 2 6 mph 1025.1mb 46f
9:00pm 3 6 mph 1025.1mb 47f
8:40pm 5 7 mph 1024.4mb 48f
8:30pm 5 7 mph 1024.4mb 49f
8:20pm 3 6 mph 1024mb 50f
8:10pm 5 7 mph 1024mb 51f
8:00pm 5 7 mph 1024.4mb 51f
7:40pm 5 9 mph 1024.7mb 52f
7:30pm 5 8 mph 1024.7mb 53f
7:20pm 6 10 mph 1024.7mb 53f
7:10pm 6 10 mph 1024.7mb 53f
7:00pm 5 13 mph 1024.7mb 54f
6:40pm 8 15 mph 1024.4mb 54f
6:30pm 9 13 mph 1024.4mb 54f
6:20pm 7 13 mph 1024mb 54f
6:10pm 7 14 mph 1024mb 55f
6:00pm 7 17 mph 1024mb 55f
5:40pm 7 16 mph 1024mb 55f
5:30pm 10 15 mph 1024mb 55f
5:20pm 10 20 mph 1024mb 54f
5:10pm 9 15 mph 1024mb 54f
5:00pm 9 16 mph 1024mb 55f
4:40pm 14 18 mph 1024mb 55f
4:30pm 13 20 mph 1024mb 55f
4:20pm 8 21 mph 1024mb 55f
4:10pm 8 16 mph 1024mb 55f
4:00pm 11 18 mph 1024mb 55f
3:40pm 10 17 mph 1024.4mb 55f
3:30pm 11 16 mph 1024mb 55f
3:20pm 11 16 mph 1024mb 55f
3:10pm 11 17 mph 1024mb 55f
3:00pm 10 15 mph 1024.4mb 56f
2:40pm 11 16 mph 1024mb 55f
2:30pm 9 14 mph 1024mb 55f
2:20pm 8 14 mph 1024mb 56f
2:10pm 6 13 mph 1024.4mb 58f
2:00pm 6 10 mph 1024.4mb 57f
1:40pm 11 13 mph 1024.4mb 52f
1:30pm 9 14 mph 1024.4mb 52f
1:20pm 11 14 mph 1024.4mb 51f
1:10pm 11 15 mph 1024.4mb 51f
1:00pm 9 14 mph 1024.4mb 52f
12:40pm 9 11 mph 1024.4mb 51f
12:30pm 10 13 mph 1024.4mb 50f
12:20pm 8 10 mph 1024mb 50f
12:10pm 8 10 mph 1024.4mb 50f
12:00pm 7 10 mph 1024mb 50f
11:40am 7 10 mph 1024mb 49f
11:30am 9 10 mph 1024mb 48f
11:20am 7 9 mph 1024mb 48f
11:10am 7 9 mph 1024mb 47f
11:00am 6 8 mph 1024mb 47f
10:40am 6 7 mph 1024mb 46f
10:30am 6 7 mph 1024.4mb 46f
10:20am 7 8 mph 1024.4mb 46f
10:10am 7 8 mph 1024.4mb 46f
10:00am 7 8 mph 1024.4mb 46f
9:50am 7 8 mph 1024.4mb 45f
9:40am 6 7 mph 1024.4mb 46f
9:30am 6 7 mph 1024.4mb 45f
9:20am 6 8 mph 1024.4mb 46f
9:10am 6 8 mph 1024mb 46f
9:00am 7 8 mph 1024mb 45f
8:50am 7 9 mph 1023.7mb 46f
8:40am 8 9 mph 1023.7mb 45f
8:30am 8 9 mph 1023.7mb 46f
8:20am 7 9 mph 1023.7mb 47f
8:10am 7 9 mph 1023.4mb 46f
8:00am 7 9 mph 1023.4mb 46f
7:50am 7 10 mph 1023.4mb 47f
7:40am 8 9 mph 1023.4mb 47f
7:30am 8 10 mph 1023mb 46f
7:20am 9 11 mph 1023mb 46f
7:10am 9 11 mph 1023mb 46f
7:00am 8 9 mph 1022.7mb 47f
6:50am 7 9 mph 1022.7mb 46f
6:40am 8 9 mph 1022.7mb 46f
6:30am 8 9 mph 1022.4mb 46f
6:20am 8 9 mph 1022.4mb 46f
6:10am 6 7 mph 1022.4mb 46f
6:00am 6 7 mph 1022.4mb 46f
5:50am 2 6 mph 1022mb 44f
5:40am 3 8 mph 1021.7mb 43f
5:30am 6 8 mph 1021.7mb 43f
5:20am 6 8 mph 1021.7mb 43f
5:10am 5 7 mph 1021.7mb 42f
5:00am 6 8 mph 1021.3mb 42f
4:50am 5 8 mph 1021.3mb 42f
4:40am 7 9 mph 1021mb 43f
4:30am 6 8 mph 1021mb 43f
4:20am 3 7 mph 1021mb 42f
4:10am 5 8 mph 1020.7mb 43f
4:00am 6 8 mph 1020.7mb 44f
3:50am 5 7 mph 1020.3mb 44f
3:40am 6 8 mph 1020.3mb 44f
3:30am 5 8 mph 1020mb 44f
3:20am 7 9 mph 1020mb 44f
3:10am 5 9 mph 1020mb 44f
3:00am 7 10 mph 1019.6mb 45f
2:50am 8 10 mph 1019.6mb 46f
2:40am 10 11 mph 1019.6mb 45f
2:30am 6 8 mph 1019.6mb 44f
2:20am 5 9 mph 1019.3mb 45f
2:10am 7 10 mph 1019.3mb 45f
2:00am 8 10 mph 1019.3mb 45f
1:50am 5 8 mph 1019.3mb 44f
1:40am 3 8 mph 1019mb 44f
1:30am 7 8 mph 1019mb 47f
1:20am 7 9 mph 1019mb 47f
1:10am 7 8 mph 1019mb 45f
1:00am 2 6 mph 1019mb 43f
12:50am 2 5 mph 1019mb 43f
12:40am  -  2 mph 1018.6mb 42f
12:30am  -  2 mph 1018.6mb 43f
12:20am  -  5 mph 1018.6mb 44f
12:10am 3 5 mph 1018.6mb 45f
12:00am 5 7 mph 1018.6mb 48f
Thu 05/21 11:50pm 6 8 mph 1018.3mb 48f
11:40pm 7 8 mph 1018.3mb 49f
11:30pm 8 10 mph 1018.3mb 49f
11:20pm 8 10 mph 1018.3mb 49f
11:10pm 8 9 mph 1018.3mb 49f
11:00pm 8 11 mph 1017.9mb 49f
10:50pm 9 14 mph 1017.9mb 49f
10:40pm 11 13 mph 1017.9mb 50f
10:30pm 9 13 mph 1017.9mb 50f
10:20pm 9 11 mph 1017.9mb 50f
10:10pm 9 14 mph 1017.6mb 50f
10:00pm 9 13 mph 1017.6mb 51f
9:50pm 8 11 mph 1017.6mb 51f
9:40pm 7 9 mph 1017.3mb 51f
9:30pm 8 10 mph 1016.9mb 52f
9:20pm 8 10 mph 1016.9mb 52f
9:10pm 7 11 mph 1016.6mb 52f
9:00pm 8 11 mph 1016.6mb 52f
8:50pm 9 11 mph 1016.3mb 52f
8:40pm 8 10 mph 1016.3mb 52f
8:30pm 8 13 mph 1016.3mb 53f
8:20pm 10 14 mph 1015.9mb 53f
8:10pm 13 16 mph 1015.9mb 53f
8:00pm 11 17 mph 1015.9mb 53f
7:50pm 13 18 mph 1015.6mb 53f
7:40pm 13 18 mph 1015.6mb 53f
7:30pm 14 18 mph 1015.6mb 53f
7:20pm 15 20 mph 1015.6mb 54f
7:10pm 15 18 mph 1015.2mb 53f
7:00pm 14 20 mph 1015.2mb 54f
6:50pm 15 22 mph 1015.2mb 54f
6:40pm 17 20 mph 1015.2mb 54f
6:30pm 15 20 mph 1014.9mb 54f
6:20pm 15 21 mph 1014.9mb 54f
6:10pm 16 22 mph 1014.9mb 54f
6:00pm 15 21 mph 1014.9mb 54f
5:50pm 16 20 mph 1014.9mb 54f
5:40pm 13 21 mph 1014.9mb 53f
5:30pm 15 22 mph 1014.9mb 54f
5:20pm 18 23 mph 1014.9mb 55f
5:10pm 18 23 mph 1014.6mb 55f
5:00pm 18 28 mph 1014.2mb 55f
4:50pm 18 28 mph 1014.2mb 55f
4:40pm 18 23 mph 1013.9mb 55f
4:30pm 17 22 mph 1014.2mb 55f
4:20pm 15 20 mph 1014.2mb 55f
4:10pm 14 18 mph 1014.2mb 56f
4:00pm 14 20 mph 1014.2mb 57f
3:50pm 15 20 mph 1013.9mb 58f
3:40pm 15 18 mph 1013.9mb 58f
3:30pm 14 20 mph 1013.5mb 57f
3:20pm 15 22 mph 1013.5mb 57f
3:10pm 17 21 mph 1013.2mb 57f
3:00pm 17 22 mph 1013.2mb 56f
2:50pm 17 23 mph 1013.2mb 56f
2:40pm 17 22 mph 1013.2mb 56f
2:30pm 18 21 mph 1013.2mb 55f
2:20pm 16 21 mph 1013.2mb 56f
2:10pm 18 22 mph 1012.9mb 56f
2:00pm 14 17 mph 1012.2mb 58f
1:50pm 11 15 mph 1012.2mb 58f
1:40pm 11 15 mph 1012.2mb 58f
1:30pm 13 17 mph 1012.5mb 57f
1:20pm 10 14 mph 1012.5mb 55f
1:10pm 8 11 mph 1012.5mb 57f
1:00pm 11 17 mph 1012.5mb 56f
12:50pm 10 14 mph 1012.5mb 58f
12:40pm 9 16 mph 1012.2mb 62f
12:30pm 11 16 mph 1012.2mb 61f
12:20pm 9 16 mph 1012.2mb 60f
12:10pm 7 13 mph 1012.5mb 60f
12:00pm 8 15 mph 1012.5mb 60f
11:50am 8 14 mph 1012.5mb 59f
11:40am 8 16 mph 1012.5mb 59f
11:30am 9 15 mph 1012.9mb 58f
11:20am 6 13 mph 1012.9mb 58f
11:10am 6 14 mph 1012.9mb 56f
11:00am 9 14 mph 1012.9mb 56f
10:50am 7 13 mph 1012.9mb 58f
10:40am 6 13 mph 1012.9mb 57f
10:30am 7 14 mph 1012.9mb 58f
10:20am 7 11 mph 1013.2mb 56f
10:10am 8 13 mph 1013.2mb 57f
10:00am 8 14 mph 1013.2mb 57f
9:50am 7 15 mph 1013.5mb 57f
9:40am 9 14 mph 1013.9mb 56f
9:30am 8 15 mph 1013.9mb 56f
9:20am 9 14 mph 1013.9mb 55f
9:10am 9 14 mph 1013.9mb 54f
9:00am 9 14 mph 1013.9mb 54f
8:50am 9 15 mph 1014.2mb 53f
8:40am 8 14 mph 1013.9mb 53f
8:30am 6 14 mph 1014.2mb 52f
8:20am 8 13 mph 1014.2mb 51f
8:10am 7 13 mph 1014.2mb 51f
8:00am 8 15 mph 1014.2mb 51f
7:50am 8 13 mph 1014.2mb 50f
7:40am 7 13 mph 1014.6mb 50f
7:30am 8 14 mph 1014.6mb 50f
7:20am 9 14 mph 1014.6mb 50f
7:10am 8 13 mph 1014.6mb 49f
7:00am 7 10 mph 1014.6mb 49f
6:50am 6 10 mph 1014.6mb 49f
6:40am 5 10 mph 1014.6mb 49f
6:30am 6 9 mph 1014.6mb 48f
6:20am 5 9 mph 1014.6mb 48f
6:10am 6 9 mph 1014.6mb 46f
6:00am 8 11 mph 1014.6mb 47f
5:50am 6 9 mph 1014.6mb 46f
5:40am 7 11 mph 1014.6mb 45f
5:30am 5 8 mph 1014.6mb 43f
5:20am 6 9 mph 1014.6mb 42f
5:10am 3 6 mph 1014.9mb 41f
5:00am 3 6 mph 1014.9mb 41f
4:50am 5 6 mph 1014.9mb 42f
4:40am 3 6 mph 1014.9mb 44f
4:30am 3 9 mph 1014.9mb 44f
4:20am 6 9 mph 1014.9mb 46f
4:10am 5 9 mph 1015.2mb 45f
4:00am 6 9 mph 1015.2mb 46f
3:50am 6 8 mph 1015.2mb 46f
3:40am 3 7 mph 1015.2mb 44f
3:30am 2 6 mph 1015.2mb 42f
3:20am 5 7 mph 1015.2mb 44f
3:10am 5 7 mph 1015.6mb 44f
3:00am 3 8 mph 1015.6mb 45f
2:50am 3 8 mph 1015.6mb 45f
2:40am 5 6 mph 1015.6mb 44f
2:30am 3 7 mph 1015.6mb 46f
2:20am 5 8 mph 1015.6mb 46f
2:10am 6 8 mph 1015.6mb 46f
2:00am 5 8 mph 1015.9mb 46f
1:50am 5 7 mph 1015.9mb 45f
1:40am 5 7 mph 1015.9mb 46f
1:30am 5 6 mph 1015.9mb 46f
1:20am 5 6 mph 1016.3mb 46f
1:10am 3 9 mph 1016.3mb 47f
1:00am 7 9 mph 1016.3mb 49f
12:50am 6 9 mph 1016.3mb 49f
12:40am 5 9 mph 1016.3mb 49f
12:30am 5 9 mph 1016.3mb 49f
12:20am 5 9 mph 1016.3mb 48f
12:10am 5 7 mph 1016.3mb 49f
12:00am 5 9 mph 1016.3mb 49f
Wed 05/20 11:50pm 6 9 mph 1016.3mb 50f
11:40pm 5 9 mph 1016.3mb 50f
11:30pm 6 10 mph 1016.3mb 50f
11:20pm 6 10 mph 1016.3mb 50f
11:10pm 7 11 mph 1016.3mb 51f
11:00pm 7 13 mph 1016.3mb 51f
10:50pm 7 13 mph 1016.6mb 52f
10:40pm 6 14 mph 1016.6mb 52f
10:30pm 7 13 mph 1016.6mb 52f
10:20pm 7 14 mph 1016.6mb 52f
10:10pm 7 13 mph 1016.6mb 52f
10:00pm 8 14 mph 1016.9mb 52f
9:50pm 5 15 mph 1016.6mb 51f
9:40pm 7 14 mph 1016.6mb 52f
9:30pm 7 13 mph 1016.9mb 52f
9:20pm 6 13 mph 1016.9mb 52f
9:10pm 6 13 mph 1016.9mb 53f
9:00pm 7 14 mph 1016.9mb 52f
8:50pm 7 13 mph 1016.9mb 52f
8:40pm 6 13 mph 1016.9mb 51f
8:30pm 6 14 mph 1016.9mb 51f
8:20pm 6 13 mph 1017.3mb 51f
8:10pm 7 14 mph 1017.3mb 51f
8:00pm 7 14 mph 1017.3mb 51f
7:50pm 8 16 mph 1017.3mb 52f
7:40pm 8 15 mph 1017.3mb 52f
7:30pm 10 17 mph 1017.6mb 52f
7:20pm 9 21 mph 1017.6mb 52f
7:10pm 8 17 mph 1017.6mb 52f
7:00pm 8 17 mph 1017.9mb 52f
6:50pm 11 18 mph 1017.9mb 53f
6:40pm 10 18 mph 1017.9mb 53f
6:30pm 8 17 mph 1018.3mb 53f
6:20pm 10 16 mph 1018.3mb 53f
6:10pm 9 18 mph 1018.6mb 53f
6:00pm 6 14 mph 1018.6mb 53f
5:50pm 7 14 mph 1018.6mb 54f
5:40pm 8 14 mph 1019mb 54f
5:30pm 8 14 mph 1019mb 54f
5:20pm 8 14 mph 1019mb 53f
5:10pm 6 13 mph 1019mb 54f
5:00pm 5 14 mph 1019mb 54f
4:50pm 8 13 mph 1019.3mb 55f
4:40pm 7 16 mph 1019.3mb 55f
4:30pm 7 15 mph 1019.3mb 55f
4:20pm 7 14 mph 1019.3mb 56f
4:10pm 9 15 mph 1019.6mb 56f
4:00pm 7 13 mph 1019.6mb 56f
3:50pm 9 16 mph 1019.6mb 56f
3:40pm 3 14 mph 1020mb 56f
3:30pm 7 16 mph 1020mb 56f
3:20pm 5 15 mph 1020mb 56f
3:10pm 8 16 mph 1020.3mb 56f
3:00pm 8 16 mph 1020.3mb 56f
2:50pm 10 16 mph 1020.7mb 56f
2:40pm 8 15 mph 1020.7mb 57f
2:30pm 9 16 mph 1021mb 57f
2:20pm 7 17 mph 1021mb 57f
2:10pm 6 14 mph 1021mb 56f
2:00pm 9 18 mph 1021.3mb 55f
1:50pm 7 16 mph 1021.3mb 55f
1:40pm 9 15 mph 1021.7mb 56f
1:30pm 6 15 mph 1021.7mb 57f
1:20pm 8 18 mph 1021.7mb 55f
1:10pm 10 17 mph 1021.7mb 55f
1:00pm 13 18 mph 1022mb 55f
12:50pm 10 16 mph 1022mb 55f
12:40pm 8 11 mph 1022mb 55f
12:30pm 5 13 mph 1022mb 55f
12:20pm 9 16 mph 1022.4mb 53f
12:10pm 8 13 mph 1022.4mb 54f
12:00pm 6 17 mph 1022.4mb 55f
11:50am 10 16 mph 1022.4mb 54f
11:40am 6 15 mph 1022.4mb 54f
11:30am 6 13 mph 1022.7mb 55f
11:20am 5 11 mph 1022.7mb 55f
11:10am 7 11 mph 1022.7mb 54f
11:00am 3 10 mph 1022.7mb 54f
10:50am 7 11 mph 1022.7mb 53f
10:40am 2 8 mph 1022.7mb 54f
10:30am 3 9 mph 1022.7mb 53f
10:20am 3 8 mph 1022.7mb 53f
10:10am 5 10 mph 1022.7mb 52f
10:00am 2 7 mph 1022.7mb 52f
9:50am 5 9 mph 1022.7mb 50f
9:40am 6 8 mph 1022.7mb 50f
9:30am 3 6 mph 1023mb 50f
9:20am 2 8 mph 1023mb 49f
9:10am 5 8 mph 1023.4mb 49f
9:00am 5 10 mph 1023.4mb 48f
8:50am 5 8 mph 1023.4mb 48f
8:40am 5 8 mph 1023.4mb 47f
8:30am 6 7 mph 1023.4mb 47f
8:20am 2 6 mph 1023.4mb 49f
8:10am 2 6 mph 1023.4mb 47f
8:00am 3 6 mph 1023.4mb 46f
7:50am 5 8 mph 1023.4mb 46f
7:40am 6 9 mph 1023.4mb 45f
7:30am 6 7 mph 1023.4mb 44f
7:20am 6 7 mph 1023.4mb 43f
7:10am 6 8 mph 1023.4mb 43f
7:00am 6 8 mph 1023.4mb 43f
6:50am 5 8 mph 1023.4mb 43f
6:40am 6 8 mph 1023.4mb 42f
6:30am 6 8 mph 1023.4mb 42f
6:20am 6 9 mph 1023mb 42f
6:10am 5 9 mph 1023mb 41f
6:00am 6 9 mph 1023.4mb 41f
5:50am 6 9 mph 1023.4mb 40f
5:40am 6 10 mph 1023.4mb 40f
5:30am 7 10 mph 1023.4mb 40f
5:20am 7 9 mph 1023.4mb 40f
5:10am 7 10 mph 1023.4mb 40f
5:00am 7 9 mph 1023.4mb 40f
4:50am 6 10 mph 1023.4mb 40f
4:40am 7 9 mph 1023.4mb 40f
4:30am 6 11 mph 1023.4mb 40f
4:20am 6 9 mph 1023.4mb 40f
4:10am 7 10 mph 1023.4mb 40f
4:00am 6 10 mph 1023.4mb 39f
3:50am 7 11 mph 1023.4mb 40f
3:40am 6 9 mph 1023.4mb 40f
3:30am 7 9 mph 1023.4mb 40f
3:20am 6 9 mph 1023.4mb 40f
3:10am 6 8 mph 1023.4mb 40f
3:00am 5 8 mph 1023.4mb 40f
2:50am 5 9 mph 1023.4mb 40f
2:40am 5 9 mph 1023.4mb 40f
2:30am 6 9 mph 1023.4mb 40f
2:20am 6 9 mph 1023.7mb 40f
2:10am 5 8 mph 1023.4mb 40f
2:00am 5 8 mph 1023.7mb 41f
1:50am 6 9 mph 1023.7mb 40f
1:40am 5 8 mph 1023.7mb 40f
1:30am 5 7 mph 1023.7mb 40f
1:20am 5 8 mph 1023.7mb 40f
1:10am 3 7 mph 1023.7mb 36f
1:00am 2 6 mph 1024mb 33f
12:50am  -  2 mph 1024mb 32f
12:40am  -  2 mph 1024.4mb 33f
12:30am  -  1 mph 1024.4mb 33f
12:20am  -  1 mph 1024.4mb 33f
12:10am  -  2 mph 1024.4mb 33f
12:00am  -  1 mph 1024.7mb 34f
Tue 05/19 11:50pm  -  1 mph 1024.7mb 34f
11:40pm  -  1 mph 1024.7mb 34f
11:30pm  -  1 mph 1024.7mb 34f
11:20pm  -  2 mph 1024.7mb 35f
11:10pm 1 2 mph 1024.7mb 35f
11:00pm 2 3 mph 1024.7mb 35f
10:50pm 2 3 mph 1024.7mb 35f
10:40pm 2 3 mph 1024.7mb 36f
10:30pm 3
mph
1024.7mb 36f
10:20pm 3
mph
1025.1mb 37f
10:10pm 3
mph
1025.1mb 37f
10:00pm  -  3 mph 1025.1mb 37f
9:50pm 2 3 mph 1025.1mb 40f
9:40pm 2 5 mph 1025.1mb 41f
9:30pm 2 6 mph 1025.1mb 41f
9:20pm 5 7 mph 1025.1mb 42f
9:10pm 6 7 mph 1025.1mb 42f
9:00pm 6 8 mph 1024.7mb 42f
8:50pm 7 9 mph 1024.7mb 42f
8:40pm 7 9 mph 1024.7mb 42f
8:30pm 8 10 mph 1024.4mb 42f
8:20pm 7 9 mph 1024.4mb 42f
8:10pm 8 11 mph 1024.4mb 42f
8:00pm 8 11 mph 1024mb 42f
7:50pm 7 11 mph 1024.4mb 42f
7:40pm 10 15 mph 1024mb 43f
7:30pm 10 16 mph 1024.4mb 43f
7:20pm 14 18 mph 1024mb 43f
7:10pm 14 18 mph 1024.4mb 43f
7:00pm 17 20 mph 1024.4mb 43f
6:50pm 16 22 mph 1024mb 44f
6:40pm 18 23 mph 1023.7mb 44f
6:30pm 20 23 mph 1023.7mb 44f
6:20pm 20 24 mph 1023.7mb 44f
6:10pm 22 26 mph 1023.7mb 45f
6:00pm 24 26 mph 1023.4mb 45f
5:50pm 22 25 mph 1023.4mb 46f
5:40pm 21 25 mph 1023.4mb 46f
5:30pm 20 24 mph 1023.4mb 46f
5:20pm 15 18 mph 1023.4mb 46f
5:10pm 16 18 mph 1023mb 46f
5:00pm 14 18 mph 1023.4mb 45f
4:50pm 14 17 mph 1022.7mb 45f
4:40pm 13 17 mph 1023mb 45f
4:30pm 13 18 mph 1023mb 45f
4:20pm 15 17 mph 1022.7mb 46f
4:10pm 15 18 mph 1022.7mb 47f
4:00pm 13 17 mph 1022.4mb 47f
3:50pm 16 18 mph 1022.4mb 46f
3:40pm 16 18 mph 1022.4mb 46f
3:30pm 14 17 mph 1022.4mb 46f
3:20pm 13 17 mph 1022.4mb 45f
3:10pm 15 23 mph 1022.4mb 45f